| time (UTC) | temp F | wind direction | speed knots | gust knots | rain 1hr in | rain 24hr in | rain mn in | humidity % | barometer mb |
| 20260831234012 | 60 | 195 | 0.9 | 4.3 | 0.00 | 0.00 | 0.00 | 71 | 1019.1 |
| 20260831233012 | 60 | 198 | 0.0 | 1.7 | 0.00 | 0.00 | 0.00 | 70 | 1019.0 |
| 20260831232012 | 61 | 198 | 0.9 | 2.6 | 0.00 | 0.00 | 0.00 | 69 | 1019.1 |
| 20260831231012 | 61 | 198 | 0.9 | 2.6 | 0.00 | 0.00 | 0.00 | 69 | 1019.2 |
| 20260831230012 | 62 | 198 | 1.7 | 4.3 | 0.00 | 0.00 | 0.00 | 68 | 1019.2 |
| 20260831225012 | 62 | 252 | 1.7 | 4.3 | 0.00 | 0.00 | 0.00 | 67 | 1019.2 |
| 20260831224012 | 62 | 236 | 2.6 | 5.2 | 0.00 | 0.00 | 0.00 | 68 | 1019.3 |
| 20260831223011 | 62 | 236 | 2.6 | 7.8 | 0.00 | 0.00 | 0.00 | 67 | 1019.3 |
| 20260831222012 | 62 | 240 | 3.5 | 7.8 | 0.00 | 0.00 | 0.00 | 67 | 1019.2 |
| 20260831221011 | 62 | 215 | 3.5 | 10.4 | 0.00 | 0.00 | 0.00 | 67 | 1019.2 |
| 20260831220012 | 62 | 185 | 3.5 | 11.3 | 0.00 | 0.00 | 0.00 | 67 | 1019.0 |
| 20260831215012 | 62 | 238 | 3.5 | 8.7 | 0.00 | 0.34 | 0.34 | 67 | 1019.0 |
| 20260831214011 | 63 | 186 | 3.5 | 7.8 | 0.00 | 0.34 | 0.34 | 66 | 1018.8 |
| 20260831213011 | 63 | 231 | 2.6 | 6.1 | 0.00 | 0.34 | 0.34 | 65 | 1018.9 |
| 20260831212011 | 63 | 192 | 3.5 | 7.8 | 0.00 | 0.34 | 0.34 | 65 | 1018.8 |
| 20260831211012 | 63 | 222 | 4.3 | 8.7 | 0.00 | 0.34 | 0.34 | 64 | 1018.7 |
| 20260831210011 | 63 | 245 | 4.3 | 9.6 | 0.00 | 0.34 | 0.34 | 64 | 1018.6 |
| 20260831205011 | 64 | 254 | 6.1 | 14.8 | 0.00 | 0.34 | 0.34 | 63 | 1018.4 |
| 20260831204011 | 63 | 236 | 3.5 | 13.0 | 0.00 | 0.34 | 0.34 | 65 | 1018.3 |
| 20260831203011 | 63 | 231 | 3.5 | 9.6 | 0.00 | 0.34 | 0.34 | 65 | 1018.2 |
| 20260831202011 | 63 | 188 | 3.5 | 8.7 | 0.00 | 0.34 | 0.34 | 66 | 1018.2 |
| 20260831201011 | 62 | 217 | 3.5 | 8.7 | 0.00 | 0.34 | 0.34 | 66 | 1018.3 |
| 20260831200012 | 62 | 249 | 3.5 | 9.6 | 0.00 | 0.34 | 0.34 | 66 | 1018.2 |
| 20260831195011 | 62 | 223 | 2.6 | 7.8 | 0.00 | 0.34 | 0.34 | 67 | 1017.8 |
| 20260831194011 | 63 | 205 | 1.7 | 5.2 | 0.00 | 0.34 | 0.34 | 67 | 1017.8 |
| 20260831193011 | 63 | 221 | 1.7 | 5.2 | 0.00 | 0.34 | 0.34 | 65 | 1017.7 |
| 20260831192011 | 63 | 227 | 1.7 | 5.2 | 0.00 | 0.34 | 0.34 | 66 | 1017.6 |
| 20260831191010 | 63 | 231 | 2.6 | 7.8 | 0.00 | 0.34 | 0.34 | 65 | 1017.6 |
| 20260831190011 | 63 | 224 | 2.6 | 6.1 | 0.00 | 0.34 | 0.34 | 64 | 1017.4 |
| 20260831185011 | 64 | 220 | 2.6 | 7.0 | 0.00 | 0.34 | 0.34 | 64 | 1017.4 |
| 20260831184010 | 64 | 229 | 2.6 | 9.6 | 0.00 | 0.34 | 0.34 | 63 | 1017.4 |
| 20260831183010 | 65 | 231 | 4.3 | 7.8 | 0.00 | 0.34 | 0.34 | 62 | 1017.3 |
| 20260831182012 | 65 | 208 | 2.6 | 9.6 | 0.00 | 0.34 | 0.34 | 61 | 1017.1 |
| 20260831181011 | 65 | 248 | 3.5 | 9.6 | 0.00 | 0.34 | 0.34 | 59 | 1017.0 |
| 20260831180011 | 66 | 269 | 3.5 | 12.2 | 0.00 | 0.34 | 0.34 | 58 | 1016.8 |
| 20260831175010 | 66 | 207 | 3.5 | 8.7 | 0.00 | 0.34 | 0.34 | 58 | 1016.7 |
| 20260831174011 | 67 | 220 | 5.2 | 12.2 | 0.00 | 0.34 | 0.34 | 57 | 1016.6 |
| 20260831173010 | 68 | 243 | 7.8 | 20.0 | 0.00 | 0.34 | 0.34 | 57 | 1016.6 |
| 20260831172010 | 70 | 259 | 9.6 | 26.1 | 0.00 | 0.34 | 0.34 | 53 | 1016.3 |
| 20260831171010 | 71 | 200 | 6.1 | 16.5 | 0.00 | 0.34 | 0.34 | 52 | 1015.8 |
| 20260831170010 | 71 | 200 | 6.1 | 16.5 | 0.00 | 0.34 | 0.34 | 52 | 1015.8 |
| 20260831165017 | 71 | 230 | 4.3 | 12.2 | 0.00 | 0.34 | 0.34 | 52 | 1015.7 |
| 20260831164009 | 72 | 192 | 5.2 | 13.9 | 0.00 | 0.34 | 0.34 | 51 | 1015.6 |
| 20260831163011 | 72 | 192 | 5.2 | 13.9 | 0.00 | 0.34 | 0.34 | 51 | 1015.6 |
| 20260831162010 | 72 | 215 | 5.2 | 13.0 | 0.00 | 0.34 | 0.34 | 51 | 1015.7 |
| 20260831161017 | 72 | 224 | 6.1 | 13.0 | 0.00 | 0.34 | 0.34 | 51 | 1015.6 |
| 20260831160009 | 74 | 218 | 6.1 | 13.9 | 0.00 | 0.34 | 0.34 | 52 | 1015.4 |
| 20260831154011 | 74 | 5 | 4.3 | 17.4 | 0.00 | 0.34 | 0.34 | 52 | 1015.4 |
| 20260831153009 | 74 | 217 | 4.3 | 14.8 | 0.00 | 0.34 | 0.34 | 52 | 1015.3 |
| 20260831152009 | 74 | 202 | 5.2 | 15.6 | 0.00 | 0.34 | 0.34 | 50 | 1015.2 |
| 20260831150010 | 75 | 247 | 6.1 | 15.6 | 0.00 | 0.34 | 0.34 | 50 | 1015.2 |
| 20260831145009 | 75 | 212 | 6.1 | 15.6 | 0.00 | 0.34 | 0.34 | 49 | 1015.4 |
| 20260831143009 | 76 | 224 | 6.1 | 13.9 | 0.00 | 0.34 | 0.34 | 51 | 1015.3 |
| 20260831142014 | 76 | 224 | 6.1 | 13.9 | 0.00 | 0.34 | 0.34 | 51 | 1015.3 |
| 20260831141014 | 76 | 166 | 7.0 | 16.5 | 0.00 | 0.34 | 0.34 | 50 | 1015.5 |
| 20260831140013 | 76 | 215 | 6.1 | 15.6 | 0.00 | 0.34 | 0.34 | 48 | 1015.5 |
| 20260831135013 | 76 | 232 | 6.1 | 13.9 | 0.00 | 0.34 | 0.34 | 49 | 1015.4 |
| 20260831134013 | 76 | 247 | 7.0 | 15.6 | 0.00 | 0.34 | 0.34 | 50 | 1015.4 |
| 20260831133013 | 76 | 218 | 7.8 | 17.4 | 0.00 | 0.34 | 0.34 | 48 | 1015.4 |
| 20260831132013 | 76 | 203 | 7.8 | 20.0 | 0.00 | 0.34 | 0.34 | 51 | 1015.6 |
| 20260831131013 | 76 | 224 | 8.7 | 15.6 | 0.00 | 0.34 | 0.34 | 50 | 1015.5 |
| 20260831130013 | 76 | 226 | 7.0 | 13.9 | 0.00 | 0.34 | 0.34 | 53 | 1015.5 |
| 20260831125013 | 75 | 218 | 6.1 | 19.1 | 0.00 | 0.34 | 0.34 | 50 | 1015.6 |
| 20260831124013 | 74 | 213 | 6.1 | 14.8 | 0.00 | 0.34 | 0.34 | 55 | 1015.7 |
| 20260831123013 | 74 | 236 | 8.7 | 14.8 | 0.00 | 0.34 | 0.34 | 52 | 1015.6 |
| 20260831122013 | 74 | 200 | 6.1 | 14.8 | 0.00 | 0.34 | 0.34 | 52 | 1015.6 |
| 20260831121013 | 74 | 248 | 5.2 | 13.9 | 0.00 | 0.34 | 0.34 | 55 | 1015.6 |
| 20260831120013 | 73 | 252 | 6.1 | 15.6 | 0.00 | 0.34 | 0.34 | 53 | 1015.6 |
| 20260831115013 | 72 | 233 | 6.1 | 15.6 | 0.00 | 0.34 | 0.34 | 56 | 1015.7 |
| 20260831114013 | 71 | 232 | 4.3 | 10.4 | 0.00 | 0.34 | 0.34 | 56 | 1015.8 |
| 20260831113013 | 72 | 189 | 6.1 | 17.4 | 0.00 | 0.34 | 0.34 | 53 | 1015.8 |
| 20260831112012 | 73 | 194 | 7.0 | 15.6 | 0.00 | 0.34 | 0.34 | 51 | 1015.8 |
| 20260831111012 | 73 | 236 | 6.1 | 15.6 | 0.00 | 0.34 | 0.34 | 55 | 1015.9 |
| 20260831110013 | 73 | 181 | 6.1 | 16.5 | 0.00 | 0.34 | 0.34 | 54 | 1015.6 |
| 20260831105013 | 73 | 248 | 6.1 | 20.0 | 0.00 | 0.34 | 0.34 | 56 | 1015.8 |
| 20260831104013 | 72 | 201 | 7.0 | 14.8 | 0.00 | 0.34 | 0.34 | 63 | 1015.7 |
| 20260831103013 | 72 | 216 | 7.0 | 18.2 | 0.00 | 0.34 | 0.34 | 64 | 1015.9 |
| 20260831102012 | 72 | 297 | 7.0 | 15.6 | 0.00 | 0.34 | 0.34 | 69 | 1015.8 |
| 20260831101012 | 71 | 221 | 6.1 | 13.0 | 0.00 | 0.34 | 0.34 | 67 | 1016.0 |
| 20260831100012 | 71 | 258 | 7.8 | 16.5 | 0.00 | 0.34 | 0.34 | 69 | 1016.1 |
| 20260831095012 | 71 | 259 | 7.0 | 15.6 | 0.00 | 0.34 | 0.34 | 67 | 1016.3 |
| 20260831094012 | 70 | 221 | 6.1 | 16.5 | 0.00 | 0.34 | 0.34 | 75 | 1016.1 |
| 20260831093012 | 69 | 245 | 6.1 | 16.5 | 0.00 | 0.34 | 0.34 | 74 | 1016.1 |
| 20260831092012 | 68 | 263 | 5.2 | 14.8 | 0.00 | 0.34 | 0.34 | 73 | 1016.2 |
| 20260831091012 | 67 | 279 | 7.8 | 14.8 | 0.00 | 0.34 | 0.34 | 73 | 1016.1 |
| 20260831090012 | 68 | 274 | 6.1 | 13.9 | 0.00 | 0.34 | 0.34 | 76 | 1016.1 |
| 20260831085012 | 66 | 248 | 6.1 | 16.5 | 0.00 | 0.34 | 0.34 | 77 | 1016.1 |
| 20260831084012 | 66 | 250 | 7.8 | 16.5 | 0.00 | 0.34 | 0.34 | 76 | 1016.0 |
| 20260831083012 | 67 | 263 | 7.8 | 14.8 | 0.00 | 0.34 | 0.34 | 76 | 1015.9 |
| 20260831082012 | 67 | 188 | 6.1 | 15.6 | 0.00 | 0.34 | 0.34 | 81 | 1015.8 |
| 20260831081012 | 67 | 280 | 4.3 | 10.4 | 0.00 | 0.34 | 0.34 | 81 | 1015.8 |
| 20260831080012 | 66 | 228 | 5.2 | 11.3 | 0.00 | 0.34 | 0.34 | 84 | 1015.7 |
| 20260831075012 | 66 | 225 | 5.2 | 13.9 | 0.00 | 0.34 | 0.34 | 85 | 1015.7 |
| 20260831074012 | 65 | 250 | 5.2 | 13.9 | 0.00 | 0.34 | 0.34 | 86 | 1015.7 |
| 20260831073013 | 65 | 296 | 3.5 | 10.4 | 0.00 | 0.34 | 0.34 | 89 | 1015.7 |
| 20260831072011 | 64 | 301 | 5.2 | 11.3 | 0.00 | 0.34 | 0.34 | 88 | 1015.6 |
| 20260831071012 | 64 | 225 | 3.5 | 11.3 | 0.00 | 0.34 | 0.34 | 89 | 1015.5 |
| 20260831070012 | 63 | 256 | 6.1 | 13.0 | 0.00 | 0.34 | 0.34 | 90 | 1015.4 |
| 20260831065012 | 63 | 238 | 3.5 | 10.4 | 0.00 | 0.34 | 0.34 | 91 | 1015.3 |
| 20260831064011 | 62 | 223 | 2.6 | 10.4 | 0.00 | 0.34 | 0.34 | 92 | 1015.3 |
| 20260831063012 | 62 | 254 | 3.5 | 10.4 | 0.00 | 0.34 | 0.34 | 92 | 1015.4 |
| 20260831062012 | 62 | 217 | 2.6 | 7.0 | 0.00 | 0.34 | 0.34 | 91 | 1015.2 |
| 20260831061011 | 62 | 194 | 2.6 | 7.0 | 0.00 | 0.34 | 0.34 | 92 | 1014.9 |
| 20260831060012 | 62 | 196 | 3.5 | 10.4 | 0.00 | 0.34 | 0.34 | 92 | 1014.7 |
| 20260831055011 | 62 | 275 | 3.5 | 10.4 | 0.00 | 0.34 | 0.34 | 92 | 1014.6 |
| 20260831054011 | 62 | 278 | 3.5 | 8.7 | 0.00 | 0.34 | 0.34 | 92 | 1014.6 |
| 20260831053011 | 62 | 267 | 4.3 | 16.5 | 0.00 | 0.34 | 0.34 | 92 | 1014.5 |
| 20260831052011 | 62 | 232 | 2.6 | 10.4 | 0.00 | 0.34 | 0.34 | 92 | 1014.2 |
| 20260831051011 | 62 | 257 | 2.6 | 6.1 | 0.00 | 0.34 | 0.34 | 92 | 1014.3 |
| 20260831050011 | 62 | 219 | 1.7 | 3.5 | 0.00 | 0.34 | 0.34 | 92 | 1014.0 |
| 20260831045011 | 61 | 190 | 0.0 | 1.7 | 0.00 | 0.34 | 0.34 | 91 | 1014.0 |
| 20260831044011 | 61 | 190 | 0.0 | 1.7 | 0.00 | 0.34 | 0.34 | 91 | 1013.8 |
| 20260831043011 | 61 | 190 | 0.9 | 2.6 | 0.00 | 0.34 | 0.34 | 91 | 1013.6 |
| 20260831042011 | 61 | 190 | 0.9 | 4.3 | 0.01 | 0.34 | 0.34 | 91 | 1013.4 |
| 20260831041011 | 61 | 186 | 1.7 | 4.3 | 0.01 | 0.34 | 0.34 | 91 | 1013.4 |
| 20260831040011 | 61 | 180 | 0.9 | 3.5 | 0.01 | 0.34 | 0.34 | 91 | 1013.6 |
| 20260831035011 | 61 | 192 | 0.9 | 5.2 | 0.02 | 0.34 | 0.34 | 90 | 1013.6 |
| 20260831034010 | 61 | 191 | 0.9 | 3.5 | 0.04 | 0.34 | 0.34 | 90 | 1013.3 |
| 20260831033011 | 61 | 191 | 0.9 | 4.3 | 0.19 | 0.34 | 0.34 | 89 | 1013.3 |
| 20260831032011 | 61 | 192 | 1.7 | 4.3 | 0.33 | 0.33 | 0.33 | 88 | 1013.4 |
| 20260831031010 | 61 | 194 | 0.9 | 3.5 | 0.33 | 0.33 | 0.33 | 87 | 1013.5 |
| 20260831030010 | 61 | 194 | 2.6 | 6.1 | 0.33 | 0.33 | 0.33 | 86 | 1013.4 |
| 20260831025019 | 61 | 180 | 2.6 | 8.7 | 0.32 | 0.32 | 0.32 | 85 | 1013.6 |
| 20260831024010 | 62 | 240 | 2.6 | 7.8 | 0.30 | 0.30 | 0.30 | 83 | 1013.5 |
| 20260831023011 | 62 | 190 | 4.3 | 11.3 | 0.15 | 0.15 | 0.15 | 81 | 1014.0 |
| 20260831022010 | 61 | 144 | 0.9 | 2.6 | 0.00 | 0.00 | 0.00 | 79 | 1013.0 |
| 20260831021010 | 61 | 124 | 0.9 | 2.6 | 0.00 | 0.00 | 0.00 | 78 | 1012.0 |
| 20260831020010 | 61 | 124 | 0.9 | 2.6 | 0.00 | 0.00 | 0.00 | 79 | 1012.3 |
| 20260831015010 | 61 | 124 | 0.9 | 1.7 | 0.00 | 0.00 | 0.00 | 79 | 1012.5 |
| 20260831014010 | 61 | 124 | 0.0 | 1.7 | 0.00 | 0.00 | 0.00 | 79 | 1012.6 |
| 20260831013010 | 61 | 124 | 0.0 | 1.7 | 0.00 | 0.00 | 0.00 | 79 | 1012.6 |
| 20260831012011 | 61 | 124 | 0.9 | 3.5 | 0.00 | 0.00 | 0.00 | 81 | 1012.7 |
| 20260831011009 | 60 | 124 | 1.7 | 3.5 | 0.00 | 0.00 | 0.00 | 85 | 1012.7 |
| 20260831010010 | 60 | 124 | 1.7 | 3.5 | 0.00 | 0.00 | 0.00 | 86 | 1013.0 |
| 20260831005010 | 59 | 135 | 1.7 | 2.6 | 0.00 | 0.00 | 0.00 | 86 | 1013.2 |
| 20260831004010 | 59 | 135 | 1.7 | 2.6 | 0.00 | 0.00 | 0.00 | 86 | 1013.1 |
| 20260831003010 | 59 | 135 | 1.7 | 3.5 | 0.00 | 0.00 | 0.00 | 86 | 1013.1 |
| 20260831002010 | 59 | 136 | 0.9 | 2.6 | 0.00 | 0.00 | 0.00 | 86 | 1013.5 |
| 20260831001010 | 59 | 136 | 0.9 | 1.7 | 0.00 | 0.00 | 0.00 | 86 | 1013.6 |
| 20260831000010 | 59 | 136 | 0.9 | 2.6 | 0.00 | 0.00 | 0.00 | 85 | 1013.7 |
| 20260830235010 | 59 | 136 | 0.9 | 1.7 | 0.00 | 0.00 | 0.00 | 85 | 1013.7 |